[Date Prev][Date Next][Thread Prev][Thread Next] - [Date Index][Thread Index][Author Index]
2 Line ISS Keps 4-17 [ Updates last keps by 25 sec's ]
- Subject: [sarex] 2 Line ISS Keps 4-17 [ Updates last keps by 25 sec's ]
- From: "Dave Larsen PhD" <doc@xxxxxxxxxxx>
- Date: Wed, 17 Apr 2002 11:27:18 -0700
ISS
1 25544U 98067A 02107.58333333 -.00000508 00000-0 00000+0 0 3202
2 25544 51.6369 357.3923 0008316 345.8780 135.4011 15.57606929194578
----
Via the sarex mailing list at AMSAT.ORG courtesy of AMSAT-NA.
To unsubscribe, send "unsubscribe sarex" to Majordomo@amsat.org
AMSAT Home